Precipitable_Water
0.23 0.22 0.23 0.23 0.23 0.24 0.25 0.26 0.26 0.27 0.29 0.29 0.29 0.30 0.30 0.29 0.25 0.21 0.21 0.25 0.27 0.31 0.35 0.34 0.39 0.43 0.43 0.43 0.47 0.51 0.54 0.58 0.62 0.64 0.64 0.62 0.61 0.60 0.60 0.57 0.54 0.53 0.52 0.52 0.52 0.51 0.51 0.50 0.49 0.49 0.47 0.46 0.49 0.54 0.57 0.60 0.61 0.67 0.71 0.74 0.77 0.78 0.82 0.85 0.86 0.84 0.80 0.77 0.73 0.70 0.68 0.66 0.65 0.66
0.25 0.25 0.24 0.25 0.25 0.26 0.26 0.25 0.26 0.27 0.29 0.30 0.30 0.31 0.33 0.33 0.28 0.25 0.22 0.23 0.29 0.30 0.34 0.35 0.36 0.42 0.43 0.45 0.45 0.47 0.50 0.55 0.58 0.61 0.64 0.64 0.63 0.63 0.62 0.59 0.56 0.55 0.53 0.52 0.52 0.53 0.52 0.52 0.51 0.50 0.50 0.49 0.48 0.48 0.53 0.56 0.58 0.61 0.65 0.69 0.73 0.76 0.80 0.83 0.85 0.84 0.84 0.81 0.77 0.74 0.71 0.69 0.67 0.67
0.26 0.26 0.26 0.27 0.26 0.27 0.26 0.27 0.28 0.29 0.30 0.32 0.32 0.31 0.32 0.33 0.32 0.28 0.27 0.22 0.27 0.33 0.32 0.35 0.37 0.38 0.42 0.45 0.46 0.47 0.49 0.53 0.56 0.59 0.61 0.63 0.64 0.64 0.63 0.61 0.59 0.59 0.58 0.57 0.55 0.54 0.54 0.54 0.52 0.50 0.50 0.52 0.51 0.51 0.50 0.52 0.54 0.57 0.62 0.67 0.69 0.74 0.77 0.80 0.83 0.86 0.85 0.82 0.80 0.77 0.75 0.72 0.70 0.68
0.27 0.27 0.26 0.27 0.27 0.28 0.28 0.28 0.29 0.29 0.31 0.33 0.33 0.33 0.33 0.34 0.35 0.34 0.29 0.25 0.25 0.31 0.34 0.35 0.37 0.38 0.39 0.43 0.45 0.47 0.49 0.51 0.55 0.57 0.58 0.61 0.61 0.60 0.59 0.59 0.58 0.59 0.59 0.58 0.58 0.57 0.56 0.56 0.55 0.52 0.49 0.49 0.52 0.54 0.54 0.53 0.51 0.53 0.59 0.64 0.67 0.70 0.73 0.77 0.79 0.83 0.84 0.83 0.81 0.80 0.77 0.74 0.73 0.71
0.26 0.27 0.26 0.26 0.27 0.29 0.29 0.28 0.29 0.29 0.30 0.32 0.34 0.34 0.34 0.34 0.35 0.36 0.34 0.29 0.26 0.30 0.36 0.37 0.37 0.39 0.40 0.40 0.44 0.46 0.48 0.50 0.52 0.55 0.56 0.55 0.56 0.57 0.57 0.58 0.59 0.59 0.58 0.58 0.57 0.57 0.57 0.57 0.57 0.57 0.53 0.50 0.50 0.53 0.56 0.56 0.55 0.53 0.53 0.58 0.64 0.69 0.69 0.73 0.76 0.79 0.81 0.82 0.82 0.81 0.79 0.77 0.75 0.73
0.25 0.27 0.26 0.25 0.26 0.29 0.29 0.29 0.29 0.29 0.30 0.32 0.33 0.33 0.33 0.33 0.34 0.37 0.35 0.33 0.31 0.28 0.33 0.35 0.38 0.38 0.40 0.38 0.42 0.43 0.45 0.48 0.50 0.51 0.53 0.55 0.55 0.55 0.56 0.56 0.57 0.58 0.58 0.58 0.56 0.56 0.56 0.56 0.57 0.57 0.58 0.55 0.51 0.50 0.53 0.57 0.58 0.57 0.55 0.55 0.58 0.63 0.66 0.68 0.72 0.73 0.76 0.79 0.80 0.80 0.79 0.78 0.76 0.76
0.25 0.26 0.26 0.25 0.26 0.28 0.28 0.29 0.30 0.31 0.31 0.33 0.32 0.32 0.34 0.33 0.33 0.35 0.35 0.33 0.31 0.31 0.31 0.35 0.36 0.37 0.38 0.38 0.38 0.41 0.44 0.46 0.48 0.48 0.50 0.52 0.53 0.54 0.53 0.54 0.54 0.56 0.58 0.59 0.58 0.56 0.56 0.55 0.56 0.57 0.57 0.59 0.57 0.54 0.53 0.55 0.58 0.59 0.59 0.57 0.57 0.59 0.62 0.65 0.68 0.69 0.70 0.73 0.76 0.77 0.78 0.78 0.77 0.77
0.24 0.25 0.26 0.26 0.26 0.27 0.27 0.28 0.29 0.29 0.29 0.30 0.31 0.32 0.31 0.31 0.30 0.31 0.33 0.33 0.31 0.32 0.31 0.33 0.35 0.37 0.37 0.38 0.40 0.41 0.41 0.42 0.43 0.45 0.47 0.49 0.50 0.51 0.52 0.52 0.52 0.53 0.55 0.57 0.58 0.57 0.56 0.55 0.54 0.55 0.57 0.58 0.58 0.58 0.56 0.54 0.56 0.56 0.58 0.59 0.58 0.59 0.61 0.63 0.64 0.66 0.68 0.69 0.71 0.74 0.74 0.75 0.75 0.75
0.24 0.25 0.25 0.26 0.26 0.26 0.26 0.26 0.27 0.28 0.28 0.29 0.30 0.31 0.31 0.30 0.29 0.30 0.30 0.30 0.31 0.31 0.31 0.32 0.35 0.36 0.36 0.37 0.38 0.39 0.38 0.39 0.41 0.42 0.43 0.44 0.46 0.48 0.49 0.49 0.50 0.50 0.52 0.55 0.56 0.57 0.56 0.55 0.55 0.54 0.55 0.55 0.56 0.57 0.59 0.58 0.57 0.56 0.57 0.57 0.58 0.59 0.61 0.64 0.64 0.64 0.65 0.66 0.68 0.70 0.71 0.71 0.71 0.72
0.24 0.24 0.25 0.26 0.26 0.26 0.25 0.25 0.26 0.27 0.27 0.28 0.29 0.30 0.30 0.29 0.29 0.28 0.28 0.29 0.30 0.30 0.30 0.32 0.32 0.33 0.34 0.34 0.35 0.37 0.38 0.37 0.37 0.39 0.40 0.42 0.43 0.43 0.45 0.46 0.47 0.48 0.49 0.51 0.53 0.55 0.55 0.55 0.54 0.54 0.54 0.54 0.54 0.56 0.59 0.59 0.57 0.55 0.56 0.57 0.57 0.58 0.59 0.63 0.65 0.65 0.64 0.64 0.65 0.67 0.69 0.69 0.69 0.70
0.25 0.24 0.24 0.25 0.26 0.25 0.25 0.25 0.25 0.26 0.27 0.27 0.27 0.29 0.28 0.28 0.27 0.26 0.26 0.27 0.27 0.28 0.29 0.30 0.32 0.32 0.33 0.34 0.33 0.35 0.38 0.38 0.37 0.36 0.36 0.38 0.40 0.41 0.42 0.42 0.44 0.45 0.46 0.48 0.50 0.52 0.54 0.54 0.54 0.54 0.53 0.54 0.55 0.55 0.57 0.58 0.55 0.55 0.56 0.56 0.57 0.56 0.56 0.59 0.62 0.65 0.66 0.66 0.65 0.65 0.65 0.66 0.67 0.67
0.25 0.25 0.24 0.24 0.25 0.25 0.26 0.25 0.25 0.26 0.26 0.27 0.26 0.28 0.28 0.28 0.27 0.25 0.25 0.25 0.26 0.26 0.27 0.28 0.29 0.30 0.30 0.31 0.33 0.34 0.34 0.34 0.35 0.36 0.36 0.34 0.36 0.38 0.40 0.41 0.41 0.42 0.43 0.43 0.45 0.48 0.50 0.52 0.54 0.54 0.53 0.53 0.53 0.54 0.56 0.58 0.58 0.57 0.58 0.58 0.57 0.57 0.56 0.56 0.57 0.60 0.63 0.64 0.64 0.65 0.66 0.65 0.64 0.64
0.26 0.25 0.25 0.25 0.25 0.26 0.26 0.26 0.26 0.26 0.27 0.26 0.25 0.26 0.27 0.27 0.26 0.26 0.25 0.24 0.24 0.25 0.25 0.26 0.28 0.28 0.29 0.29 0.29 0.30 0.31 0.30 0.30 0.32 0.34 0.34 0.36 0.37 0.38 0.39 0.41 0.41 0.40 0.41 0.42 0.44 0.47 0.47 0.50 0.51 0.52 0.52 0.51 0.51 0.54 0.56 0.58 0.59 0.60 0.61 0.60 0.59 0.58 0.57 0.57 0.57 0.58 0.61 0.63 0.63 0.64 0.63 0.64 0.63
0.27 0.27 0.26 0.25 0.25 0.26 0.26 0.26 0.27 0.27 0.27 0.27 0.27 0.26 0.26 0.26 0.26 0.26 0.25 0.24 0.23 0.24 0.24 0.24 0.26 0.25 0.26 0.27 0.28 0.28 0.29 0.31 0.32 0.31 0.31 0.30 0.32 0.34 0.34 0.36 0.38 0.40 0.39 0.39 0.39 0.41 0.45 0.45 0.46 0.48 0.49 0.51 0.52 0.50 0.51 0.52 0.54 0.57 0.60 0.62 0.61 0.61 0.60 0.59 0.58 0.57 0.56 0.57 0.58 0.59 0.59 0.59 0.60 0.61
0.26 0.27 0.27 0.27 0.27 0.27 0.27 0.27 0.27 0.27 0.28 0.28 0.28 0.27 0.28 0.28 0.27 0.26 0.25 0.24 0.24 0.23 0.23 0.25 0.25 0.25 0.24 0.26 0.27 0.28 0.28 0.29 0.29 0.29 0.30 0.30 0.30 0.30 0.29 0.28 0.33 0.38 0.38 0.37 0.36 0.37 0.42 0.43 0.42 0.44 0.46 0.48 0.50 0.51 0.50 0.50 0.52 0.55 0.58 0.59 0.60 0.61 0.61 0.59 0.59 0.58 0.57 0.55 0.54 0.54 0.53 0.53 0.53 0.54
0.27 0.27 0.27 0.28 0.28 0.29 0.28 0.28 0.28 0.28 0.29 0.29 0.29 0.29 0.29 0.29 0.29 0.30 0.27 0.25 0.24 0.24 0.23 0.24 0.25 0.25 0.24 0.25 0.26 0.26 0.27 0.26 0.27 0.28 0.29 0.29 0.28 0.28 0.28 0.28 0.28 0.32 0.36 0.35 0.34 0.35 0.39 0.41 0.40 0.40 0.43 0.45 0.46 0.48 0.49 0.50 0.50 0.53 0.55 0.57 0.58 0.58 0.59 0.59 0.58 0.58 0.57 0.55 0.53 0.51 0.50 0.49 0.49 0.49
0.27 0.27 0.27 0.27 0.28 0.29 0.29 0.30 0.30 0.29 0.29 0.29 0.29 0.29 0.29 0.29 0.29 0.29 0.30 0.29 0.27 0.26 0.25 0.24 0.25 0.25 0.26 0.25 0.25 0.26 0.25 0.26 0.25 0.26 0.26 0.27 0.28 0.28 0.27 0.28 0.29 0.31 0.35 0.33 0.33 0.32 0.36 0.38 0.37 0.37 0.41 0.43 0.43 0.44 0.46 0.48 0.49 0.50 0.52 0.54 0.55 0.56 0.56 0.57 0.57 0.57 0.56 0.55 0.54 0.53 0.51 0.50 0.49 0.47
0.26 0.27 0.27 0.27 0.27 0.28 0.29 0.29 0.29 0.29 0.29 0.29 0.29 0.29 0.29 0.29 0.29 0.29 0.29 0.29 0.29 0.28 0.26 0.25 0.24 0.27 0.28 0.26 0.26 0.27 0.27 0.25 0.24 0.24 0.24 0.25 0.25 0.26 0.26 0.28 0.30 0.32 0.34 0.31 0.31 0.30 0.33 0.35 0.35 0.35 0.38 0.41 0.42 0.43 0.43 0.44 0.46 0.47 0.49 0.50 0.52 0.53 0.54 0.55 0.55 0.55 0.55 0.55 0.54 0.53 0.52 0.50 0.49 0.48
0.26 0.26 0.27 0.27 0.27 0.28 0.28 0.28 0.29 0.28 0.28 0.28 0.29 0.29 0.29 0.30 0.30 0.30 0.30 0.30 0.30 0.29 0.28 0.27 0.26 0.26 0.28 0.28 0.29 0.29 0.28 0.27 0.26 0.25 0.24 0.24 0.24 0.25 0.27 0.28 0.29 0.30 0.32 0.32 0.30 0.27 0.30 0.33 0.32 0.33 0.35 0.38 0.39 0.42 0.43 0.43 0.43 0.44 0.45 0.47 0.49 0.50 0.51 0.53 0.53 0.53 0.53 0.53 0.53 0.52 0.51 0.50 0.49 0.48
0.25 0.26 0.26 0.27 0.27 0.27 0.28 0.28 0.29 0.29 0.29 0.28 0.28 0.27 0.28 0.29 0.30 0.30 0.32 0.32 0.32 0.31 0.29 0.28 0.28 0.27 0.28 0.28 0.29 0.29 0.29 0.28 0.28 0.28 0.27 0.26 0.25 0.24 0.22 0.22 0.24 0.25 0.28 0.29 0.28 0.27 0.28 0.31 0.31 0.31 0.34 0.36 0.36 0.38 0.40 0.42 0.43 0.43 0.43 0.43 0.45 0.47 0.48 0.49 0.50 0.51 0.51 0.51 0.51 0.51 0.51 0.50 0.49 0.48
0.22 0.23 0.25 0.25 0.25 0.25 0.25 0.26 0.27 0.28 0.28 0.27 0.27 0.27 0.27 0.27 0.28 0.29 0.31 0.32 0.32 0.31 0.31 0.30 0.29 0.29 0.28 0.29 0.29 0.29 0.29 0.29 0.29 0.28 0.25 0.23 0.23 0.21 0.19 0.20 0.20 0.21 0.24 0.26 0.27 0.26 0.25 0.28 0.29 0.29 0.32 0.33 0.34 0.35 0.37 0.39 0.41 0.42 0.43 0.43 0.43 0.44 0.45 0.46 0.47 0.48 0.49 0.49 0.49 0.47 0.47 0.47 0.47 0.47
0.24 0.24 0.24 0.24 0.23 0.23 0.23 0.24 0.24 0.25 0.26 0.25 0.25 0.25 0.24 0.25 0.25 0.26 0.29 0.30 0.31 0.32 0.32 0.32 0.32 0.30 0.29 0.29 0.29 0.30 0.30 0.30 0.30 0.28 0.23 0.24 0.23 0.21 0.20 0.18 0.19 0.20 0.22 0.24 0.27 0.24 0.23 0.26 0.27 0.26 0.28 0.30 0.31 0.33 0.34 0.36 0.37 0.39 0.41 0.42 0.43 0.43 0.43 0.43 0.44 0.44 0.44 0.44 0.45 0.46 0.46 0.45 0.45 0.46
0.24 0.24 0.25 0.25 0.25 0.24 0.24 0.24 0.24 0.24 0.25 0.25 0.25 0.24 0.23 0.22 0.22 0.24 0.26 0.26 0.27 0.28 0.29 0.30 0.32 0.32 0.31 0.31 0.30 0.29 0.30 0.31 0.31 0.30 0.28 0.27 0.24 0.21 0.20 0.20 0.20 0.19 0.20 0.24 0.27 0.22 0.22 0.23 0.24 0.24 0.23 0.22 0.26 0.29 0.31 0.33 0.34 0.36 0.37 0.39 0.41 0.42 0.43 0.43 0.43 0.43 0.43 0.43 0.43 0.44 0.45 0.45 0.45 0.45
0.23 0.24 0.25 0.25 0.26 0.26 0.27 0.27 0.27 0.27 0.27 0.26 0.26 0.26 0.24 0.23 0.22 0.24 0.25 0.25 0.26 0.26 0.26 0.27 0.29 0.29 0.31 0.31 0.31 0.30 0.29 0.30 0.32 0.31 0.31 0.29 0.27 0.24 0.22 0.21 0.20 0.19 0.19 0.24 0.26 0.23 0.22 0.23 0.22 0.24 0.23 0.20 0.20 0.24 0.27 0.28 0.30 0.32 0.33 0.34 0.35 0.38 0.40 0.41 0.42 0.42 0.43 0.43 0.44 0.44 0.44 0.44 0.44 0.43
0.24 0.25 0.25 0.26 0.27 0.27 0.27 0.27 0.27 0.28 0.28 0.27 0.27 0.27 0.27 0.27 0.26 0.27 0.25 0.25 0.26 0.26 0.26 0.26 0.27 0.27 0.28 0.29 0.29 0.29 0.28 0.30 0.31 0.32 0.32 0.31 0.30 0.27 0.25 0.23 0.21 0.21 0.22 0.24 0.26 0.23 0.20 0.20 0.20 0.21 0.20 0.20 0.20 0.21 0.23 0.25 0.27 0.28 0.30 0.31 0.31 0.33 0.35 0.36 0.37 0.38 0.40 0.41 0.41 0.42 0.42 0.42 0.42 0.42
0.25 0.26 0.26 0.26 0.26 0.26 0.26 0.27 0.26 0.26 0.27 0.27 0.27 0.27 0.27 0.29 0.29 0.28 0.28 0.28 0.27 0.26 0.26 0.26 0.26 0.27 0.26 0.26 0.27 0.27 0.27 0.28 0.29 0.31 0.31 0.32 0.31 0.31 0.29 0.27 0.24 0.22 0.22 0.26 0.26 0.24 0.22 0.20 0.20 0.19 0.19 0.18 0.18 0.19 0.19 0.21 0.24 0.26 0.27 0.28 0.29 0.31 0.32 0.33 0.34 0.35 0.36 0.37 0.38 0.39 0.40 0.40 0.40 0.41
0.24 0.25 0.25 0.26 0.26 0.26 0.25 0.25 0.25 0.25 0.25 0.26 0.26 0.26 0.27 0.27 0.28 0.29 0.29 0.28 0.28 0.27 0.27 0.26 0.25 0.26 0.25 0.25 0.25 0.26 0.26 0.27 0.27 0.28 0.29 0.30 0.30 0.30 0.30 0.30 0.30 0.28 0.28 0.28 0.28 0.26 0.24 0.21 0.22 0.20 0.19 0.19 0.18 0.17 0.18 0.18 0.20 0.23 0.24 0.25 0.26 0.28 0.29 0.30 0.31 0.32 0.33 0.34 0.35 0.36 0.37 0.38 0.38 0.39
0.25 0.24 0.24 0.25 0.25 0.24 0.25 0.25 0.25 0.25 0.25 0.26 0.26 0.26 0.27 0.27 0.28 0.28 0.27 0.27 0.27 0.27 0.27 0.26 0.25 0.25 0.25 0.25 0.25 0.26 0.27 0.27 0.28 0.28 0.28 0.28 0.29 0.29 0.28 0.29 0.29 0.29 0.29 0.28 0.28 0.28 0.26 0.24 0.23 0.24 0.22 0.20 0.18 0.16 0.16 0.18 0.19 0.20 0.21 0.23 0.24 0.25 0.26 0.27 0.28 0.30 0.31 0.32 0.33 0.33 0.33 0.33 0.35 0.35
0.25 0.26 0.26 0.26 0.25 0.24 0.25 0.25 0.25 0.25 0.25 0.26 0.26 0.27 0.27 0.28 0.28 0.28 0.27 0.26 0.26 0.25 0.25 0.26 0.25 0.25 0.26 0.26 0.26 0.28 0.29 0.30 0.30 0.28 0.28 0.28 0.28 0.28 0.28 0.27 0.27 0.27 0.27 0.27 0.27 0.27 0.27 0.25 0.24 0.24 0.23 0.22 0.20 0.19 0.19 0.18 0.18 0.18 0.19 0.19 0.19 0.21 0.23 0.24 0.25 0.26 0.27 0.28 0.29 0.30 0.30 0.31 0.31 0.32
0.26 0.26 0.26 0.26 0.25 0.25 0.25 0.25 0.23 0.23 0.25 0.26 0.27 0.27 0.27 0.28 0.28 0.27 0.27 0.26 0.26 0.25 0.25 0.26 0.25 0.26 0.27 0.27 0.27 0.28 0.28 0.27 0.26 0.26 0.26 0.25 0.25 0.25 0.25 0.24 0.24 0.25 0.26 0.26 0.27 0.27 0.26 0.25 0.24 0.24 0.23 0.22 0.22 0.21 0.20 0.19 0.18 0.19 0.19 0.19 0.19 0.20 0.21 0.21 0.22 0.22 0.23 0.24 0.25 0.26 0.27 0.28 0.28 0.28
0.26 0.25 0.25 0.25 0.24 0.24 0.24 0.24 0.23 0.23 0.25 0.26 0.27 0.27 0.27 0.28 0.28 0.28 0.27 0.26 0.26 0.26 0.26 0.26 0.26 0.27 0.27 0.28 0.27 0.26 0.26 0.25 0.25 0.26 0.25 0.25 0.24 0.24 0.24 0.23 0.22 0.22 0.23 0.24 0.25 0.25 0.25 0.25 0.24 0.23 0.21 0.20 0.21 0.21 0.21 0.20 0.19 0.18 0.18 0.19 0.19 0.17 0.19 0.20 0.20 0.20 0.21 0.21 0.22 0.22 0.23 0.23 0.24 0.25
0.25 0.24 0.25 0.25 0.25 0.25 0.23 0.23 0.23 0.23 0.23 0.23 0.24 0.25 0.26 0.27 0.28 0.28 0.27 0.28 0.27 0.27 0.27 0.27 0.27 0.27 0.27 0.26 0.25 0.25 0.25 0.25 0.25 0.26 0.25 0.24 0.24 0.24 0.23 0.21 0.21 0.21 0.22 0.22 0.23 0.24 0.24 0.24 0.23 0.23 0.22 0.21 0.19 0.20 0.20 0.19 0.18 0.18 0.18 0.18 0.18 0.18 0.18 0.18 0.18 0.19 0.20 0.20 0.19 0.19 0.20 0.20 0.20 0.21
0.25 0.25 0.24 0.23 0.23 0.22 0.21 0.21 0.21 0.22 0.22 0.23 0.24 0.25 0.26 0.27 0.27 0.28 0.27 0.26 0.26 0.27 0.27 0.26 0.26 0.25 0.26 0.25 0.25 0.25 0.24 0.24 0.25 0.26 0.25 0.25 0.24 0.24 0.23 0.22 0.21 0.21 0.20 0.21 0.22 0.22 0.23 0.23 0.23 0.23 0.22 0.22 0.22 0.21 0.20 0.18 0.18 0.18 0.18 0.18 0.17 0.17 0.17 0.18 0.18 0.18 0.18 0.18 0.17 0.17 0.17 0.18 0.18 0.18
0.23 0.23 0.22 0.21 0.22 0.21 0.20 0.19 0.19 0.20 0.21 0.22 0.23 0.24 0.25 0.26 0.27 0.26 0.27 0.27 0.27 0.27 0.26 0.26 0.26 0.25 0.25 0.24 0.24 0.24 0.24 0.24 0.24 0.25 0.25 0.24 0.24 0.23 0.22 0.21 0.21 0.21 0.21 0.21 0.21 0.22 0.22 0.22 0.22 0.22 0.22 0.21 0.21 0.21 0.20 0.19 0.18 0.18 0.18 0.18 0.17 0.17 0.18 0.18 0.18 0.18 0.18 0.17 0.17 0.16 0.15 0.16 0.16 0.17
0.23 0.22 0.21 0.21 0.21 0.21 0.20 0.20 0.20 0.20 0.21 0.22 0.22 0.23 0.24 0.25 0.25 0.26 0.26 0.26 0.27 0.26 0.26 0.26 0.26 0.25 0.25 0.24 0.24 0.24 0.24 0.24 0.24 0.24 0.24 0.24 0.24 0.23 0.22 0.21 0.20 0.20 0.20 0.20 0.20 0.21 0.21 0.21 0.21 0.21 0.20 0.20 0.20 0.20 0.21 0.20 0.18 0.18 0.18 0.17 0.18 0.17 0.18 0.18 0.18 0.17 0.17 0.17 0.16 0.15 0.15 0.15 0.15 0.16
0.22 0.22 0.21 0.21 0.20 0.21 0.20 0.20 0.21 0.21 0.21 0.22 0.22 0.22 0.23 0.23 0.24 0.25 0.25 0.26 0.26 0.25 0.25 0.24 0.24 0.24 0.24 0.24 0.24 0.24 0.24 0.24 0.23 0.23 0.22 0.22 0.22 0.22 0.22 0.21 0.21 0.21 0.21 0.21 0.21 0.21 0.21 0.21 0.21 0.20 0.18 0.18 0.17 0.17 0.18 0.20 0.20 0.19 0.18 0.17 0.17 0.17 0.18 0.18 0.17 0.17 0.16 0.15 0.15 0.14 0.14 0.14 0.14 0.15
0.21 0.21 0.21 0.21 0.21 0.21 0.20 0.21 0.21 0.21 0.21 0.22 0.22 0.22 0.23 0.23 0.23 0.24 0.25 0.26 0.25 0.25 0.25 0.25 0.24 0.24 0.24 0.24 0.24 0.23 0.23 0.23 0.22 0.22 0.22 0.23 0.22 0.22 0.21 0.21 0.21 0.21 0.21 0.21 0.22 0.22 0.22 0.21 0.21 0.20 0.19 0.17 0.16 0.15 0.17 0.19 0.20 0.20 0.19 0.18 0.17 0.17 0.17 0.17 0.16 0.16 0.15 0.15 0.14 0.14 0.13 0.13 0.14 0.14
0.20 0.21 0.21 0.21 0.21 0.21 0.21 0.21 0.21 0.21 0.21 0.22 0.22 0.22 0.22 0.22 0.23 0.23 0.24 0.24 0.24 0.24 0.24 0.24 0.23 0.23 0.23 0.23 0.23 0.22 0.22 0.22 0.22 0.22 0.22 0.22 0.21 0.21 0.21 0.20 0.20 0.21 0.21 0.21 0.21 0.21 0.21 0.21 0.20 0.20 0.19 0.17 0.16 0.16 0.16 0.18 0.18 0.19 0.20 0.18 0.17 0.16 0.16 0.15 0.15 0.14 0.15 0.15 0.15 0.14 0.14 0.13 0.13 0.13
0.20 0.20 0.21 0.21 0.21 0.21 0.21 0.21 0.21 0.21 0.21 0.21 0.21 0.21 0.21 0.22 0.22 0.22 0.22 0.23 0.23 0.23 0.23 0.23 0.23 0.23 0.23 0.23 0.23 0.22 0.22 0.22 0.21 0.21 0.21 0.21 0.21 0.21 0.21 0.21 0.20 0.20 0.20 0.20 0.20 0.20 0.20 0.19 0.19 0.19 0.19 0.18 0.17 0.17 0.17 0.17 0.17 0.18 0.19 0.19 0.17 0.16 0.15 0.15 0.14 0.14 0.14 0.14 0.14 0.14 0.14 0.14 0.14 0.14
0.20 0.20 0.21 0.21 0.21 0.21 0.21 0.21 0.20 0.20 0.20 0.20 0.20 0.20 0.21 0.20 0.21 0.21 0.21 0.21 0.21 0.22 0.22 0.22 0.22 0.22 0.22 0.22 0.22 0.22 0.21 0.21 0.21 0.21 0.21 0.21 0.21 0.21 0.20 0.20 0.20 0.20 0.19 0.19 0.19 0.19 0.19 0.19 0.19 0.19 0.19 0.19 0.19 0.19 0.18 0.18 0.17 0.17 0.17 0.18 0.18 0.17 0.16 0.15 0.14 0.14 0.13 0.13 0.13 0.12 0.12 0.12 0.12 0.12
0.20 0.20 0.20 0.21 0.21 0.21 0.21 0.20 0.20 0.20 0.20 0.20 0.19 0.19 0.19 0.19 0.20 0.20 0.20 0.20 0.21 0.20 0.20 0.20 0.21 0.20 0.20 0.20 0.20 0.20 0.19 0.19 0.20 0.20 0.20 0.20 0.20 0.20 0.19 0.19 0.19 0.19 0.19 0.18 0.18 0.18 0.19 0.19 0.20 0.20 0.19 0.19 0.19 0.18 0.17 0.16 0.15 0.15 0.15 0.16 0.17 0.17 0.16 0.15 0.14 0.14 0.13 0.13 0.13 0.12 0.12 0.11 0.11 0.11
0.19 0.19 0.20 0.20 0.20 0.21 0.21 0.20 0.20 0.20 0.20 0.20 0.20 0.19 0.19 0.19 0.19 0.19 0.19 0.19 0.19 0.19 0.19 0.19 0.19 0.19 0.19 0.20 0.20 0.19 0.19 0.19 0.19 0.19 0.19 0.19 0.19 0.19 0.19 0.19 0.18 0.18 0.18 0.18 0.18 0.18 0.19 0.19 0.19 0.19 0.18 0.18 0.17 0.16 0.14 0.14 0.14 0.14 0.14 0.15 0.15 0.17 0.17 0.16 0.15 0.14 0.14 0.13 0.12 0.12 0.12 0.12 0.12 0.11
0.19 0.19 0.19 0.20 0.20 0.20 0.20 0.20 0.20 0.20 0.20 0.19 0.19 0.19 0.19 0.19 0.19 0.18 0.18 0.17 0.17 0.18 0.18 0.18 0.18 0.19 0.19 0.19 0.19 0.19 0.19 0.18 0.18 0.18 0.18 0.18 0.18 0.18 0.18 0.18 0.18 0.18 0.18 0.18 0.18 0.18 0.18 0.18 0.18 0.18 0.17 0.17 0.16 0.16 0.14 0.14 0.14 0.14 0.14 0.14 0.14 0.14 0.15 0.16 0.16 0.15 0.14 0.14 0.13 0.13 0.12 0.11 0.11 0.10
0.19 0.19 0.19 0.19 0.19 0.20 0.20 0.19 0.19 0.19 0.19 0.19 0.19 0.19 0.18 0.18 0.18 0.18 0.17 0.17 0.16 0.16 0.17 0.16 0.16 0.17 0.18 0.18 0.18 0.18 0.18 0.18 0.18 0.17 0.17 0.17 0.17 0.17 0.17 0.17 0.17 0.17 0.17 0.17 0.17 0.17 0.17 0.17 0.17 0.17 0.16 0.15 0.15 0.14 0.14 0.14 0.13 0.13 0.13 0.13 0.13 0.13 0.13 0.13 0.14 0.14 0.15 0.15 0.14 0.14 0.13 0.13 0.12 0.12
0.19 0.19 0.19 0.19 0.19 0.19 0.19 0.19 0.19 0.19 0.19 0.19 0.18 0.18 0.18 0.17 0.17 0.16 0.16 0.16 0.15 0.14 0.14 0.14 0.14 0.15 0.16 0.16 0.16 0.16 0.16 0.16 0.16 0.16 0.16 0.15 0.15 0.16 0.16 0.15 0.15 0.15 0.15 0.15 0.15 0.15 0.15 0.15 0.15 0.15 0.14 0.14 0.13 0.13 0.13 0.12 0.12 0.11 0.11 0.11 0.11 0.11 0.11 0.11 0.11 0.11 0.11 0.12 0.13 0.14 0.14 0.14 0.14 0.13
Wind_Speed
46 47 49 51 52 53 54 55 56 58 59 61 64 66 66 66 65 65 66 67 66 66 67 67 66 66 67 67 67 68 68 69 69 68 68 68 67 66 65 64 63 63 63 63 62 62 62 61 61 61 60 60 59 59 58 57 56 55 54 53 51 50 50 51 51 51 49 49 49 49 49 48 48 48
41 43 45 47 48 49 50 51 53 55 55 56 59 62 63 64 64 63 64 66 66 65 66 67 67 66 66 66 66 67 67 68 69 69 69 68 68 67 66 65 64 63 63 63 63 63 62 62 62 61 61 61 60 60 59 58 58 57 56 55 53 52 50 50 52 52 51 50 50 49 49 49 49 49
38 40 42 43 44 46 47 48 49 51 52 52 54 57 60 61 62 62 61 64 65 65 64 65 66 66 66 65 64 65 66 67 68 68 68 69 68 68 67 66 65 64 63 63 63 63 63 63 62 62 62 61 61 61 60 60 59 58 57 57 55 54 53 52 52 52 52 51 50 50 50 49 49 49
35 37 38 39 41 42 43 45 46 48 49 48 49 51 54 56 57 58 59 60 62 63 63 62 63 64 65 65 64 63 63 65 66 67 67 67 67 67 67 67 66 65 64 64 63 64 64 64 63 63 63 62 62 61 61 61 60 59 59 58 57 56 55 54 53 52 52 52 52 51 50 50 50 50
32 33 35 36 38 39 40 42 44 46 46 46 46 47 48 50 52 53 54 55 57 59 60 60 60 61 63 64 64 63 62 62 63 64 64 65 65 65 65 65 65 65 64 64 63 63 63 64 64 63 63 63 63 62 62 61 61 60 60 59 58 57 56 56 55 54 53 52 52 52 51 51 51 51
29 30 32 33 34 35 37 38 40 42 44 44 44 45 46 47 49 50 50 50 52 54 57 58 57 58 61 63 63 63 62 61 61 61 61 61 61 63 63 63 63 63 63 63 63 62 62 63 63 63 63 63 63 63 63 62 61 61 61 60 60 59 58 57 57 56 55 53 53 53 53 52 52 52
27 28 29 30 31 32 34 35 36 38 41 42 42 43 44 45 47 48 49 48 48 49 52 56 57 56 57 59 61 62 61 60 60 61 60 59 59 60 62 62 61 62 62 61 61 62 61 61 62 63 63 63 63 63 63 63 63 62 62 61 61 61 60 59 58 58 57 56 55 54 54 54 53 53
25 25 26 27 29 30 31 32 33 35 37 39 41 42 42 44 45 47 48 48 47 47 48 52 55 55 54 55 57 59 59 59 59 59 59 59 58 58 59 60 60 60 61 61 60 61 61 60 60 61 62 62 63 63 63 63 63 63 62 62 62 62 61 61 60 59 58 58 57 56 56 55 55 55
24 24 24 25 26 28 30 31 31 33 35 36 38 40 41 41 42 43 45 47 47 47 47 48 51 53 52 52 53 55 56 57 57 57 58 58 57 56 56 57 58 58 59 60 60 60 60 60 60 59 60 61 62 62 63 63 63 63 63 63 62 62 62 62 61 60 60 59 58 58 57 57 56 56
23 24 24 24 25 27 28 29 30 31 33 34 35 38 39 40 40 41 42 44 46 47 47 47 48 51 52 52 51 52 54 55 55 56 57 56 56 56 55 55 55 56 57 58 58 59 59 59 59 59 58 59 60 61 62 63 64 64 64 64 63 62 62 63 62 61 60 60 59 59 58 58 57 57
22 23 24 24 24 26 27 28 29 30 32 33 34 35 36 38 40 40 41 42 44 46 47 48 48 49 52 52 52 52 52 53 54 55 55 55 56 56 56 55 55 55 56 56 57 58 58 58 59 59 58 58 59 59 60 61 62 63 64 64 64 64 63 63 63 62 61 60 60 59 59 59 59 58
20 21 23 23 23 24 25 27 28 30 31 32 34 35 35 37 38 40 41 42 43 45 47 48 48 48 50 51 52 52 52 53 54 54 55 55 55 55 56 56 56 55 55 55 56 57 57 57 57 58 58 58 58 58 58 59 59 61 63 64 64 64 64 64 63 63 62 61 61 60 59 59 59 59
17 19 21 22 23 23 24 26 27 29 31 32 33 34 35 36 37 38 40 41 42 44 46 48 49 48 48 50 51 53 53 53 54 54 55 55 54 54 54 55 55 55 55 55 54 55 55 55 56 57 58 58 58 58 59 59 58 58 61 63 64 64 64 64 64 64 64 63 62 61 61 60 60 60
14 17 19 20 22 23 23 25 26 28 29 30 31 32 33 35 36 37 38 39 40 42 44 47 49 50 49 49 50 52 54 54 53 53 54 54 54 54 53 53 54 54 55 55 55 54 54 54 55 55 56 57 58 58 58 58 58 57 57 59 62 63 63 63 64 64 64 64 63 63 62 62 61 61
11 14 16 18 19 21 22 23 24 26 27 28 29 30 31 33 35 36 36 37 38 39 41 44 47 50 50 50 50 50 52 53 53 53 54 54 54 54 54 54 54 54 54 54 54 54 55 55 54 54 54 55 56 57 57 57 57 57 55 55 57 59 60 61 62 63 63 63 63 63 62 62 62 61
10 11 12 14 15 17 19 20 22 23 25 26 27 28 30 31 33 34 35 36 37 38 39 41 44 47 49 50 50 50 50 52 53 53 53 54 55 55 55 55 54 55 55 54 53 54 54 54 54 54 54 54 55 55 56 56 57 57 56 55 54 55 56 57 58 60 61 62 62 62 62 61 61 61
9 10 11 11 12 13 15 17 18 20 22 23 24 26 27 29 30 32 33 33 34 35 36 38 41 43 46 47 49 50 50 50 51 52 53 54 55 55 56 55 55 55 55 55 54 54 54 54 54 54 54 54 55 55 56 56 57 58 58 56 55 55 55 55 56 57 59 60 61 61 61 61 61 60
8 9 10 11 12 12 13 14 16 17 19 20 22 23 25 27 28 30 31 32 32 33 34 35 37 39 42 44 46 47 48 49 50 51 52 54 55 55 55 55 55 55 56 56 55 55 55 56 55 55 55 55 55 55 55 56 57 58 59 58 57 57 57 56 57 57 58 59 60 60 61 61 61 61
10 10 10 11 12 12 13 14 15 16 17 18 19 21 22 24 25 27 29 30 30 31 31 33 34 35 38 40 42 44 45 47 47 48 49 50 52 53 53 53 54 55 56 56 56 55 55 56 56 56 56 56 56 56 56 57 58 58 59 60 60 59 58 58 58 58 58 59 59 59 59 60 61 61
10 10 10 10 11 12 13 14 15 16 17 18 19 20 21 22 23 24 26 28 29 30 30 30 32 33 34 36 38 40 43 44 45 45 46 47 49 50 51 52 53 54 55 56 56 55 55 56 57 56 56 57 57 57 58 58 59 59 60 60 61 61 60 60 60 59 59 59 59 59 59 59 60 61
9 9 10 10 11 12 12 13 15 16 17 18 19 20 21 22 22 23 24 26 27 28 29 30 31 32 33 34 35 37 39 41 42 43 44 45 46 47 48 49 50 51 53 54 54 54 54 55 56 56 56 57 57 58 58 59 60 60 61 61 62 62 62 62 62 62 61 61 61 61 61 61 61 61
8 9 10 12 12 13 14 15 16 17 18 18 19 20 21 22 23 23 24 24 25 27 27 28 30 31 32 33 34 35 37 38 39 41 41 42 43 44 45 45 46 47 49 51 52 52 52 53 54 55 55 56 57 58 58 59 60 61 61 62 62 63 63 63 63 64 64 64 64 63 63 63 63 62
10 11 12 14 15 16 17 18 18 19 20 20 21 21 22 23 23 24 24 24 25 25 26 26 27 28 29 31 31 32 34 36 37 38 39 39 40 41 41 42 42 43 46 48 49 49 49 51 52 53 53 54 56 57 58 58 59 60 61 61 62 63 63 64 64 64 64 64 64 64 64 64 64 64
11 12 13 14 15 17 18 19 20 21 22 23 23 23 24 24 24 24 25 25 25 25 25 26 26 26 27 28 29 30 32 34 35 36 37 37 38 38 39 40 40 41 42 44 46 47 47 48 50 51 52 52 53 55 56 57 58 58 59 60 61 61 62 63 63 64 64 64 64 64 64 64 64 64
10 11 11 12 14 15 17 18 20 22 24 25 25 26 26 26 26 26 26 27 27 26 26 26 26 25 25 26 27 28 29 31 32 33 34 35 36 36 37 37 39 39 39 41 44 44 45 46 48 49 50 51 51 52 54 55 57 57 58 59 60 60 61 61 62 62 63 63 64 64 64 64 65 64
9 10 11 12 13 14 16 17 19 21 24 26 27 28 29 29 29 28 27 27 28 27 27 27 27 26 25 25 25 26 27 28 29 31 31 32 33 34 35 36 37 37 37 39 41 42 42 44 46 47 48 48 49 50 51 53 55 56 57 58 59 59 60 60 61 61 62 62 62 63 63 63 64 64
8 10 10 11 12 14 16 17 20 22 24 25 27 28 30 31 31 31 30 29 29 28 28 28 28 27 26 26 25 26 26 27 28 28 29 30 31 31 32 33 34 35 35 36 39 40 40 41 42 44 45 46 47 47 49 50 52 54 55 56 57 58 59 60 60 61 61 61 62 62 62 62 63 63
8 9 10 10 12 13 15 16 18 19 21 23 24 26 27 28 30 31 31 30 30 29 28 28 28 28 27 27 26 26 26 26 27 27 27 28 29 29 29 30 30 31 32 33 35 37 37 37 38 40 42 43 44 44 45 47 49 51 53 54 56 57 58 59 60 60 61 61 62 62 62 63 63 63
8 9 9 10 11 12 13 14 14 15 15 17 20 22 23 23 25 27 29 30 30 29 28 28 28 28 27 27 27 26 26 26 26 26 26 26 27 27 28 28 28 28 29 30 32 33 34 34 35 36 38 39 41 42 42 43 45 47 49 51 53 55 56 58 59 60 60 61 61 62 62 63 63 63
8 8 9 10 10 10 10 10 10 10 9 9 13 17 18 19 20 22 24 26 28 28 27 27 27 28 27 27 27 27 26 26 26 26 26 26 26 27 27 27 28 28 29 30 30 31 32 33 33 34 35 36 38 39 40 40 42 43 45 47 49 50 53 55 57 58 59 60 61 62 62 63 63 64
8 8 8 9 8 7 7 7 8 7 4 3 7 11 14 15 17 19 21 23 24 24 25 25 26 26 27 27 27 27 27 27 27 27 27 26 27 27 27 27 28 28 29 29 29 30 31 32 33 33 34 35 36 37 38 39 40 41 42 44 46 47 48 51 53 55 57 58 60 61 62 63 63 64
7 7 8 7 6 5 5 6 8 8 6 3 3 7 10 12 14 16 18 19 20 21 21 22 23 24 25 26 26 26 26 26 26 27 27 27 27 27 27 28 28 28 29 30 30 30 31 32 32 33 34 34 35 36 37 38 39 40 40 42 44 45 45 47 49 51 53 55 57 59 60 61 62 63
7 7 7 7 6 6 5 6 7 8 8 7 6 5 8 10 12 14 16 17 17 17 18 19 20 21 22 23 24 24 25 25 25 25 26 26 26 27 27 28 28 28 29 30 31 31 32 32 33 33 34 35 35 36 37 38 39 40 40 41 43 44 45 45 46 48 49 51 53 55 56 58 59 61
7 7 7 8 7 6 7 7 7 7 8 8 9 9 10 11 12 13 14 14 14 14 15 16 17 18 19 19 20 21 21 22 22 23 23 24 24 24 25 26 26 27 27 28 29 30 31 32 33 34 35 35 36 37 38 39 39 40 40 41 43 44 45 45 46 46 47 49 50 51 53 54 56 57
7 7 7 8 8 7 7 8 8 8 8 9 11 12 12 12 12 12 12 12 12 13 13 14 14 16 16 17 17 17 18 18 19 20 20 20 20 21 22 22 22 23 24 25 26 27 28 29 30 31 32 34 35 36 38 38 39 39 40 41 42 43 44 45 46 46 47 48 48 49 50 51 52 53
8 8 8 9 9 8 8 8 8 8 9 10 11 12 12 12 11 11 11 11 11 12 12 12 13 13 14 14 14 15 15 16 16 17 17 18 18 19 19 20 20 21 21 22 23 24 25 26 27 28 29 30 31 33 34 35 36 37 38 39 40 42 43 44 45 47 47 48 48 49 49 50 50 50
9 9 9 9 9 9 9 9 9 10 10 11 11 11 11 11 10 10 10 10 10 10 10 10 11 11 11 12 12 12 13 14 15 15 16 17 17 18 19 19 20 20 21 22 23 23 24 24 25 26 26 27 28 29 30 30 32 34 35 36 37 38 40 41 43 45 46 47 48 48 49 49 50 50
10 9 8 8 9 9 9 9 9 10 10 11 11 11 10 10 9 9 9 8 8 8 8 8 8 9 9 10 11 11 12 13 13 14 15 16 17 18 18 19 20 21 22 22 23 24 25 25 25 26 26 26 27 27 27 28 29 31 32 33 34 34 36 37 39 41 43 44 46 47 47 48 48 49
10 9 8 8 7 8 8 8 8 9 9 9 9 9 9 8 8 7 6 6 6 6 6 6 7 7 8 9 10 11 11 12 13 14 15 16 16 17 18 19 20 20 21 22 23 24 25 25 26 26 27 27 27 27 28 28 29 30 31 32 32 32 33 34 35 36 38 40 41 42 44 45 46 47
9 9 8 7 6 6 7 7 7 7 7 7 7 7 6 6 6 5 5 4 4 4 5 5 6 7 7 8 9 10 11 12 13 14 15 16 17 17 18 18 19 20 20 21 22 23 24 25 26 26 27 27 27 28 28 29 29 30 31 32 32 32 32 32 33 33 34 35 36 37 39 40 42 43
9 8 7 6 6 5 5 5 5 5 5 5 5 5 4 4 3 3 3 3 3 3 4 5 6 7 8 9 10 11 12 13 13 14 15 16 16 17 17 18 18 19 20 21 22 23 24 24 25 25 26 26 27 27 28 29 29 30 31 31 32 33 33 33 33 33 33 33 34 35 36 36 37 39
8 7 6 5 5 4 4 4 4 4 4 3 3 3 2 2 1 1 1 2 2 3 4 5 6 7 8 9 9 10 11 12 12 13 14 14 15 15 16 16 17 18 19 20 21 22 22 23 24 25 25 26 27 27 28 29 29 30 30 31 31 32 33 34 34 34 34 34 34 34 34 34 35 36
7 6 5 5 4 3 3 3 3 3 2 2 2 1 1 1 1 1 1 2 3 3 4 5 5 6 7 7 8 9 9 10 11 12 12 13 13 13 14 15 16 17 18 19 20 20 21 22 24 25 26 27 27 28 28 29 29 30 30 30 31 32 33 34 34 35 35 36 36 36 36 35 35 35
6 5 5 4 3 3 3 2 2 2 2 1 1 1 1 1 1 2 2 2 3 3 4 5 5 5 6 7 7 8 8 9 10 11 11 12 13 13 14 14 15 16 17 18 19 20 21 22 24 25 26 27 27 28 28 29 29 30 30 30 31 32 32 33 34 35 35 36 37 38 38 39 39 38
6 5 4 4 3 3 2 2 2 1 1 1 1 1 2 2 2 2 2 3 3 4 4 5 5 6 6 7 7 8 9 9 10 11 11 12 13 13 14 15 16 17 18 19 20 21 22 23 24 25 26 27 28 28 29 30 30 30 31 31 32 32 33 34 34 35 36 37 38 39 40 41 41 41
Wind_Direction
242 240 239 239 239 239 238 238 237 236 236 237 236 235 235 235 235 235 234 234 234 234 233 233 233 233 233 233 233 232 232 232 232 232 231 231 231 231 232 232 232 232 232 232 233 233 233 234 234 234 234 235 235 235 235 235 235 236 236 236 235 235 235 235 235 235 235 235 236 236 236 237 237 237
241 239 237 238 238 238 237 237 236 235 235 236 236 234 234 234 234 234 234 233 233 233 233 233 233 232 232 233 233 232 232 232 231 231 231 231 231 231 231 232 232 232 232 233 233 233 234 234 234 234 235 235 235 235 235 235 236 236 236 236 235 235 235 235 235 235 235 236 236 237 237 237 238 238
240 237 236 236 236 236 236 235 235 233 234 235 235 233 233 233 234 234 234 233 232 232 232 232 232 232 232 232 231 231 231 231 231 231 230 230 231 231 231 232 233 233 233 233 233 233 234 234 234 234 235 235 235 235 235 235 235 236 236 236 236 236 235 235 236 235 236 236 236 237 237 238 238 238
239 235 234 234 235 235 234 234 233 232 232 233 233 232 232 232 232 232 233 232 231 231 231 231 231 231 231 230 230 230 230 229 229 230 230 230 230 231 231 232 233 233 233 233 234 234 234 234 234 234 235 235 235 235 235 235 235 235 236 236 236 236 235 235 236 236 236 236 236 237 237 238 238 238
238 235 234 233 233 233 233 232 232 231 230 230 230 231 230 229 229 230 230 231 230 229 230 230 230 230 229 229 229 229 229 228 228 228 228 229 229 230 231 232 233 233 233 234 234 234 234 234 234 234 235 235 235 235 235 235 235 235 235 235 236 236 236 235 235 236 236 236 237 237 237 238 238 239
237 236 234 232 232 231 231 231 230 228 227 227 228 229 228 227 227 227 228 229 228 228 228 228 229 229 228 227 227 227 228 228 227 227 227 227 228 229 230 231 231 232 232 233 233 233 233 234 234 234 235 235 235 235 235 235 235 236 236 236 236 236 236 236 236 236 236 237 237 237 238 239 239 239
235 235 234 232 231 230 229 229 228 226 225 226 228 228 227 226 226 227 227 228 227 227 227 226 227 227 227 227 227 226 227 227 227 227 227 227 228 228 229 230 231 231 231 232 233 233 233 233 234 234 234 235 235 236 236 236 236 236 236 236 236 237 237 237 237 237 237 237 237 238 239 239 240 240
233 233 233 232 230 229 228 227 226 226 225 226 227 227 226 227 227 227 227 228 227 226 226 226 225 225 225 226 225 225 225 225 225 226 226 226 226 228 228 229 230 231 231 231 232 232 233 233 234 234 234 235 235 236 236 236 236 236 236 237 237 237 237 238 238 238 238 238 238 239 239 239 240 240
231 230 230 229 229 228 227 226 226 225 225 225 226 226 226 227 227 227 227 227 227 226 225 225 225 225 224 224 224 224 224 224 224 225 225 225 225 227 227 228 229 230 231 231 232 232 232 233 233 234 235 235 235 236 236 236 237 237 237 237 237 237 238 238 238 238 239 239 239 240 240 240 240 240
231 229 229 228 227 226 226 226 226 225 225 225 225 225 225 226 227 227 227 227 226 225 225 225 224 225 225 224 224 224 224 223 223 224 224 225 226 226 227 228 228 229 230 230 231 232 233 233 234 235 235 235 235 236 236 237 237 237 237 237 237 237 238 238 238 238 239 239 240 240 240 240 240 240
231 229 229 229 228 226 226 226 226 226 226 225 224 225 226 227 227 228 228 227 226 225 225 225 225 225 225 225 225 225 224 224 224 224 224 225 226 226 227 228 228 229 230 231 231 232 234 234 235 235 235 235 235 235 236 236 237 237 237 237 237 237 238 238 238 238 239 239 240 240 240 240 240 240
231 229 228 228 228 228 227 227 227 227 227 227 226 227 228 228 228 228 228 227 227 226 225 225 225 225 225 225 225 225 224 224 225 225 224 225 226 226 227 228 229 229 231 232 233 233 234 235 235 235 235 236 236 236 236 236 237 238 237 237 237 237 237 238 238 239 239 239 239 240 240 240 240 240
230 229 227 228 229 230 229 229 228 229 229 229 229 229 229 229 228 228 228 227 227 227 226 226 225 225 226 225 225 225 225 225 226 226 226 226 226 227 227 228 229 230 231 232 233 233 233 234 234 234 235 236 236 236 236 236 237 238 237 236 236 237 237 238 238 238 238 239 239 239 240 240 240 240
228 228 228 229 229 230 230 230 229 230 230 230 231 231 230 229 229 228 228 228 227 227 227 227 226 226 226 226 225 225 225 225 226 226 226 227 227 227 228 229 230 231 231 232 233 234 234 234 235 235 235 236 236 236 237 237 236 237 237 236 236 236 237 237 238 238 238 238 239 239 240 240 240 240
225 225 227 229 230 231 232 231 230 230 230 230 231 231 230 229 229 228 228 228 228 228 228 228 227 226 226 226 226 226 226 225 225 226 226 227 227 228 229 230 231 231 232 232 233 234 235 235 236 236 236 236 236 236 236 236 235 235 235 236 235 235 236 237 237 237 238 238 238 239 239 240 240 240
225 223 224 226 228 230 231 231 231 230 230 230 231 230 230 229 228 228 228 229 228 229 229 228 227 227 226 226 226 227 227 227 227 227 227 228 228 229 230 231 232 232 232 232 233 234 234 235 235 236 235 235 236 236 235 235 235 234 234 234 235 235 235 236 236 237 237 237 237 238 239 239 240 240
228 226 225 225 227 228 229 229 230 230 230 231 231 230 229 228 228 228 228 229 228 228 228 228 228 227 226 226 227 228 228 228 228 228 228 229 229 230 231 232 233 233 232 233 234 234 235 235 235 236 236 235 235 236 235 235 235 235 234 235 235 236 236 236 236 237 237 237 238 238 239 239 240 241
234 231 229 230 231 231 231 230 229 229 230 230 230 229 229 228 228 228 228 228 228 228 228 228 228 228 227 227 228 229 229 228 228 229 229 229 229 230 231 232 233 233 232 233 234 235 236 236 236 236 236 236 236 236 236 236 236 236 236 236 236 236 236 236 236 237 237 238 238 239 239 240 240 241
239 237 235 235 235 235 234 232 230 229 229 229 229 228 228 228 228 228 228 228 228 228 228 228 228 228 228 228 229 229 229 229 229 230 230 230 230 230 231 232 233 233 233 234 234 236 236 236 236 237 237 237 237 237 237 237 237 237 237 237 237 237 237 237 237 237 237 237 238 239 240 240 241 241
240 239 237 238 238 237 235 233 232 231 230 230 230 229 229 228 228 228 227 227 227 228 228 228 228 228 228 228 228 228 229 230 230 230 230 230 230 230 231 232 233 234 234 234 235 236 237 236 236 237 237 237 238 238 237 238 238 238 238 238 238 238 238 238 237 237 237 237 238 239 240 241 242 242
242 240 238 238 239 239 238 237 237 235 234 233 232 231 230 229 229 229 228 227 227 227 228 228 228 228 228 228 227 227 227 228 229 229 230 230 230 231 232 233 234 234 234 235 235 237 237 237 237 237 238 238 238 238 238 238 238 238 238 238 238 238 239 239 239 238 238 238 238 239 240 241 242 243
248 246 245 244 244 244 243 242 242 240 239 237 235 234 232 231 230 230 229 228 228 227 227 227 228 227 227 227 228 227 226 226 227 228 229 229 229 230 232 233 233 234 234 234 235 236 237 237 237 237 238 239 239 239 239 239 239 239 239 239 239 239 239 239 240 240 240 240 240 240 240 241 242 242
255 255 254 253 253 252 250 248 247 244 242 241 238 236 234 232 231 231 230 229 228 228 227 227 227 226 226 226 227 227 226 226 226 227 228 228 228 229 231 231 232 234 235 234 234 236 237 237 237 238 239 240 240 240 240 240 240 240 240 240 240 240 240 240 240 240 241 241 241 241 241 241 242 242
262 262 261 260 260 259 257 255 252 250 247 245 242 239 236 234 232 232 230 229 228 227 227 226 226 225 225 225 225 225 226 225 226 227 227 228 228 229 230 230 231 233 235 234 233 235 237 237 238 238 239 241 241 241 241 241 240 240 240 240 240 240 240 240 240 240 241 241 241 241 241 241 242 242
269 268 268 267 264 263 262 260 258 255 252 249 245 242 239 236 234 232 231 229 227 226 226 226 225 225 224 224 224 224 224 224 224 225 227 227 228 229 230 230 231 233 235 234 233 235 237 238 238 239 240 241 242 241 241 241 241 240 240 240 240 240 240 241 241 241 241 241 241 242 242 242 242 242
277 276 276 275 273 271 269 267 265 262 257 252 248 243 240 237 234 232 230 229 227 225 225 224 224 224 224 225 224 224 223 222 223 224 225 226 228 229 231 232 232 233 235 235 234 235 237 238 238 238 239 241 242 242 241 241 241 241 241 241 241 240 240 241 241 241 241 241 241 242 242 242 242 242
287 287 285 285 283 281 278 276 274 269 263 255 249 243 239 236 233 231 230 228 226 225 224 223 223 223 224 225 224 223 222 222 222 223 224 226 227 229 231 233 234 235 237 236 235 236 238 239 239 239 239 240 241 241 242 242 242 241 241 241 241 241 241 241 241 241 241 241 241 241 242 242 242 242
300 300 299 297 294 291 289 287 284 278 268 257 248 241 237 234 231 229 227 226 225 224 223 222 222 222 223 224 224 224 223 222 222 223 225 226 228 229 231 232 234 235 236 236 236 237 238 239 239 239 239 240 240 241 242 242 242 242 242 241 242 242 242 242 242 242 242 242 242 242 242 242 243 243
312 311 310 307 304 302 301 301 298 291 276 257 242 236 233 231 228 225 223 223 223 223 223 222 222 222 222 223 224 224 223 222 222 222 225 226 228 229 231 232 234 235 236 236 237 238 239 239 239 240 240 240 240 241 242 242 242 242 242 242 242 242 242 242 242 243 243 243 243 243 243 243 243 243
318 317 318 317 315 313 315 318 319 312 292 254 231 226 225 224 222 219 217 217 218 220 221 221 221 221 222 223 223 223 223 223 223 223 224 226 228 230 231 233 235 237 238 239 239 239 240 240 240 240 240 240 241 241 241 242 242 242 242 242 242 243 243 242 243 243 243 243 243 244 244 244 244 244
329 329 331 331 329 329 335 345 352 352 338 249 212 210 212 214 213 210 209 210 212 214 216 217 219 219 220 221 221 222 222 224 224 225 225 227 229 231 233 235 237 238 239 240 240 240 240 240 241 240 240 241 241 242 242 242 242 242 242 242 242 243 244 243 243 243 243 244 244 244 244 244 245 245
342 342 346 350 354 359 5 12 18 24 36 73 164 189 196 198 197 197 198 201 204 207 209 211 213 215 217 218 219 220 221 223 225 226 227 229 231 232 234 235 237 238 239 240 240 241 242 242 242 242 242 243 243 243 243 243 243 243 244 244 244 244 245 244 244 244 244 244 244 245 245 245 245 245
357 359 7 14 20 25 31 34 34 40 57 75 96 133 158 168 173 178 184 190 194 198 201 203 206 210 212 214 215 217 219 221 224 226 228 230 233 234 236 238 239 240 240 241 242 242 243 243 244 244 245 246 246 245 245 245 245 246 246 246 246 245 246 246 245 245 245 245 245 245 246 246 246 246
12 15 22 29 34 38 44 48 48 53 68 81 91 106 123 136 146 156 166 174 180 185 190 194 198 202 204 207 209 212 215 218 221 223 226 229 233 235 238 240 242 242 242 243 244 244 245 245 245 246 247 248 248 248 248 248 248 248 248 248 248 248 247 247 247 247 246 246 246 246 246 247 247 247
27 29 34 40 43 48 54 57 57 64 78 89 98 106 114 122 129 137 147 155 161 167 174 180 185 189 192 195 199 203 207 212 215 218 223 227 231 234 237 239 240 241 241 242 243 244 246 246 246 247 249 249 250 250 249 249 249 249 249 249 249 249 249 248 248 247 247 247 247 247 247 247 247 247
40 40 46 51 54 59 64 65 68 77 87 95 102 108 113 118 124 132 140 147 153 159 166 171 176 181 186 191 196 202 207 212 216 220 224 227 230 233 236 238 240 241 242 244 245 245 246 246 246 247 248 249 250 250 250 249 249 249 250 251 251 251 250 249 248 247 247 247 247 247 248 248 248 248
45 45 51 56 61 67 70 71 75 84 91 97 102 107 112 117 123 130 137 144 151 158 165 172 178 184 190 196 202 208 214 219 223 225 229 232 234 237 240 242 243 244 246 248 248 247 247 247 247 247 248 249 250 251 252 252 251 251 251 252 253 253 252 251 250 249 248 248 248 248 248 248 249 249
46 47 49 52 58 67 72 76 82 89 95 99 102 105 111 116 122 127 132 138 146 154 163 172 180 187 194 201 207 213 218 224 228 231 234 237 239 243 245 247 249 250 250 252 252 250 250 250 249 249 250 251 252 253 254 255 254 254 253 253 253 254 253 252 251 250 249 249 249 249 249 249 249 250
44 45 46 48 54 63 71 78 84 90 97 102 106 109 114 117 120 124 129 136 145 157 169 180 189 197 205 212 218 223 227 231 234 238 241 243 246 248 250 252 253 254 254 254 254 253 252 252 251 251 251 252 254 255 255 255 256 256 255 254 254 254 254 253 252 251 250 249 249 249 250 250 250 251
38 41 44 48 54 62 71 77 81 87 94 101 107 112 115 119 123 129 139 149 161 174 185 196 206 214 221 227 232 235 239 241 243 245 247 249 251 253 254 254 255 255 255 255 255 254 253 252 253 253 253 254 256 257 258 258 258 258 258 256 255 254 254 254 253 252 251 251 250 250 250 250 250 250
32 36 41 47 55 64 72 77 79 84 89 93 98 102 105 111 121 136 154 173 192 206 215 223 229 233 237 240 242 244 247 248 250 252 252 252 254 255 255 256 256 256 257 258 257 256 255 254 255 255 256 258 259 260 260 261 260 260 259 257 255 254 253 253 252 252 252 252 251 250 250 250 251 251
26 30 35 43 55 67 74 78 79 83 87 90 91 91 92 95 103 130 191 224 237 240 243 246 248 249 250 251 251 252 252 253 254 255 254 254 254 255 256 257 258 258 258 259 258 258 258 258 258 259 259 260 260 261 261 262 261 260 259 258 257 255 254 252 252 252 252 251 250 250 250 251 251 252
20 25 30 39 52 65 73 77 80 79 79 80 76 67 57 40 2 314 284 273 268 263 261 262 261 261 261 261 260 259 258 257 257 257 256 256 255 256 258 259 260 260 260 261 261 261 262 262 262 262 262 262 262 262 263 262 262 261 260 259 258 257 256 254 253 253 252 251 250 251 251 251 252 252
14 21 28 37 49 61 66 70 71 66 62 57 36 11 2 352 333 314 305 298 289 282 279 276 272 269 269 269 269 268 266 264 263 262 262 261 260 260 262 263 263 264 264 265 266 266 266 266 266 265 264 264 263 262 263 263 262 262 261 260 260 259 257 256 256 255 254 253 252 252 252 252 252 253
17 25 31 36 43 50 52 51 52 48 40 25 1 349 348 344 330 316 310 307 301 294 289 284 279 275 273 273 274 274 273 271 269 267 267 267 266 266 267 268 269 269 269 270 271 271 270 270 269 268 267 266 265 264 263 263 263 263 262 261 260 259 259 258 257 257 256 256 255 254 254 254 254 255